Change the Weather History Date:

Wednesday, December 26, 2012

  Actual Average Record
Temperature  
Mean Temperature 64 °F -  
Max Temperature 81 °F 78 °F 105 °F (2011)
Min Temperature 48 °F 47 °F 46 °F (1996)
Growing Degree Days 14 (Base 50)    
Moisture  
Dew Point 44 °F    
Average Humidity 47    
Maximum Humidity 81    
Minimum Humidity 25    
Precipitation  
Precipitation 0.00 in - - ()
Sea Level Pressure  
Sea Level Pressure 30.06 in    
Wind  
Wind Speed 5 mph ()    
Max Wind Speed 15 mph    
Max Gust Speed -    
Visibility 8.1 miles    
Events      
Averages and records for this station are not official NWS values.
T = Trace of Precipitation, MM = Missing Value Source: Averaged Metar Reports

Daily Weather History Graph

Daily Weather History Graph

Search for Another Location

Airport or City:

Trip Planner

Search our weather history database for the weather conditions in past years. The results will help you decide how hot, cold, wet, or windy it might be!

Date:

Astronomy

Dec. 26, 2012 Rise Set
Actual Time 6:54 AM CST 6:01 PM CST
Civil Twilight 6:30 AM CST 6:25 PM CST
Nautical Twilight 6:03 AM CST 6:52 PM CST
Astronomical Twilight 5:36 AM CST 7:18 PM CST
Moon 4:52 PM CST (12/26) 5:22 AM CST (12/26)
Length of Visible Light 11h 54m
Length of Day
11h 07m
Waxing Gibbous, 97% of the Moon is Illuminated
Dec 26
Waxing Gibbous
Dec 28
Full
Jan 4
Last Quarter
Jan 11
New
Jan 18
First Quarter

Hourly Weather History & Observations

Time (CST) Temp. Dew Point Humidity Pressure Visibility Wind Dir Wind Speed Gust Speed Precip Events Conditions
5:58 AM 48.2 °F 41.0 °F 76% 29.89 in 6.0 mi NNW 2.3 mph - N/A   Scattered Clouds
6:43 AM 46.4 °F 41.0 °F 81% 30.18 in 7.0 mi NW 2.3 mph - N/A   Mostly Cloudy
7:42 AM 46.4 °F 41.0 °F 81% 30.20 in 7.0 mi WNW 2.3 mph - N/A   Partly Cloudy
8:45 AM 57 °F 44 °F 52% 30.07 in 7 mi SW 2.2 mph - -   Partly Cloudy
8:52 AM 57.2 °F 44.6 °F 63% 30.00 in 7.0 mi South 2.3 mph - N/A   Clear
9:41 AM 62.6 °F 42.8 °F 48% 30.24 in 8.0 mi South 3.5 mph - N/A   Partly Cloudy
10:48 AM 69.8 °F 44.6 °F 40% 30.22 in 10.0 mi NNW 6.9 mph - N/A   Scattered Clouds
11:41 AM 71.6 °F 46.4 °F 41% 29.91 in 10.0 mi NNE 12.7 mph - N/A   Mostly Cloudy
11:45 AM 75 °F 46 °F 25% 30.03 in 7 mi North 6.7 mph - -   Partly Cloudy
12:42 PM 73.4 °F 42.8 °F 33% 30.17 in 10.0 mi NE 10.4 mph - N/A   Mostly Cloudy
1:53 PM 73.4 °F 44.6 °F 36% 30.13 in 8.0 mi NE 10.4 mph - N/A   Mostly Cloudy
2:45 PM 74 °F 46 °F 26% 29.90 in 11 mi ENE 6.7 mph - -   Partly Cloudy
2:50 PM 75.2 °F 44.6 °F 34% 29.81 in 8.0 mi North 15.0 mph - N/A   Mostly Cloudy
3:40 PM 73.4 °F 44.6 °F 36% 30.10 in 8.0 mi NNE 9.2 mph - N/A   Mostly Cloudy
4:44 PM 73.4 °F 41.0 °F 31% 30.09 in 8.0 mi NNE 9.2 mph - N/A   Mostly Cloudy
5:40 PM 68.0 °F 42.8 °F 40% 29.90 in 8.0 mi North 4.6 mph - N/A   Mostly Cloudy
5:45 PM 69 °F 46 °F 33% 29.85 in 12 mi NNW 2.2 mph - -   Partly Cloudy
6:45 PM 66.2 °F 42.8 °F 43% 30.14 in 7.0 mi South 4.6 mph - N/A   Scattered Clouds
7:47 PM 62.6 °F 44.6 °F 52% 30.18 in 7.0 mi NW 3.5 mph - N/A   Scattered Clouds
8:46 PM 57.2 °F 44.6 °F 63% 30.00 in 7.0 mi North 2.3 mph - N/A   Partly Cloudy
9:40 PM 59.0 °F 46.4 °F 63% 30.23 in 7.0 mi NNE 4.6 mph - N/A   Clear